User: anonymous   Login
Location: Hancock Field Station
(44.9202°N, 120.4259°W)
Time: 00:05:49
(UTC-07:00)
Language:

Cosmos 1707 - Orbit

View from above orbital plane
View from above orbital plane
View from above satellite
View from above satellite

Ground track
Ground track

The orbit data is extracted from the following two-line orbital elements,

1 16326U 85113A   15143.75854335  .00001461  00000-0  85178-4 0  9995
2 16326 082.5158 229.4160 0011693 033.3353 326.8611 15.11170431603160
Epoch (UTC): 23 May 2015 18:12:18
Eccentricity: 0.0011693
inclination: 82.5158°
perigee height: 524 km
apogee height: 541 km
right ascension of ascending node: 229.4160°
argument of perigee: 33.3353°
revolutions per day: 15.11170431
mean anomaly at epoch: 326.8611°
orbit number at epoch: 60316

The dashed part of the orbit path shows where the satellite is in the earth's shadow,  

DLR